Location: Altenhof
(50.2418°N, 10.8789°E)
Time: 03:23:17
(UTC+00:00)

Cosmos 1238 - Pass Details

Date: 18 February 2020
Orbit: 392 x 1426 km, 83.0° (Epoch: 09 April)

Event Time Altitude Azimuth Distance (km) Brightness Sun altitude
Rises 05:01:43 0° 198° (SSW) 2,321 7.9 -13.6°
Reaches altitude 10° 05:03:45 10° 204° (SSW) 1,437 6.7 -13.3°
Maximum altitude 05:06:41 52° 282° (WNW) 500 4.2 -12.8°
Drops below altitude 10° 05:09:47 10° 1° (N) 1,505 7.0 -12.3°
Sets 05:11:57 0° 6° (N) 2,448 8.2 -12.0°
